Regional Weather Roundup
Issued by NWS

Home | Current Version | Previous Version | Graphics & Text | Print | Product List | Glossary Off
Versions: 1 2 3 4 5 6 7 8 9 10 11 12 13 14 15 16 17 18 19 20 21 22 23 24 25 26 27 28 29 30 31 32 33 34 35 36 37 38 39 40 41 42 43 44 45 46 47 48 49 50

000
ASUS43 KDMX 040501
RWRIA

WEATHER ROUNDUP FOR IOWA
NATIONAL WEATHER SERVICE DES MOINES IA
1100 PM CST SAT DEC 03 2016

NOTE: "FAIR" INDICATES FEW OR NO CLOUDS BELOW 12,000 FEET WITH NO
SIGNIFICANT WEATHER AND/OR OBSTRUCTIONS TO VISIBILITY.

* - THESE STATIONS ARE NOT NWS STATIONS...THUS NOT UNDER NWS
QUALITY CONTROL.  THEY ALSO DO NOT REPORT WEATHER SUCH
AS PRECIPITATION OR FOG.

IAZ001>003-012>014-020>022-031>034-043>046-040600-
   NORTHWEST IOWA

CITY           SKY/WX    TMP DP  RH WIND       PRES   REMARKS
CARROLL *      LGT SNOW  34  32  93 SE8       30.08F WCI  27
CHEROKEE *     CLOUDY    33  33 100 S7        30.07F WCI  26
DENISON *      LGT SNOW  34  34 100 SE7       30.05F WCI  28
LE MARS *      CLOUDY    34  34 100 S12       30.06S WCI  25
ORANGE CITY *  CLOUDY    34  34 100 S9        30.04S WCI  26
SHELDON *      CLOUDY    34  34 100 S15       30.03F WCI  24
SIOUX CITY     CLOUDY    35  33  92 S10       30.06S WCI  27
SPENCER        CLOUDY    34  33  96 S18       30.07F WCI  23
STORM LAKE *   LGT SNOW  32  32 100 SE12      30.07F WCI  23
$$

IAZ055>058-069>071-079>083-090>094-040600-
   SOUTHWEST IOWA

CITY           SKY/WX    TMP DP  RH WIND       PRES   REMARKS
ATLANTIC *     LGT SNOW  34  34 100 S3        30.08S
AUDUBON *      LGT SNOW  34  30  86 CALM      30.08F
CLARINDA *       N/A     39  37  93 S8        30.10S FOG     WCI  34
COUNCIL BLFS * LGT SNOW  32  32 100 SE6       30.06F WCI  26
CRESTON *      MIX PCPN  37  36  93 SE12G17   30.09F WCI  30
HARLAN  *      LGT SNOW  32  32 100 CALM      30.10F
LAMONI         LGT RAIN  38  35  89 SE10      30.11S WCI  31
RED OAK *      MIX PCPN  37  37 100 S7        30.08S WCI  32
SHENANDOAH *   LGT RAIN  39  37  93 S7        30.09R WCI  34
$$

IAZ047>049-059>061-072>074-084-040600-
   CENTRAL IOWA

CITY           SKY/WX    TMP DP  RH WIND       PRES   REMARKS
AMES           LGT SNOW  33  33 100 SE10      30.13F FOG     WCI  25
ANKENY *       CLOUDY    34  34 100 SE12      30.14F WCI  25
BOONE *        LGT SNOW  32  32 100 SE14      30.10F VSB 1   WCI  22
CHARITON *     MIX PCPN  37  34  87 SE9G17    30.13S WCI  31
DES MOINES     LGT RAIN  37  33  85 SE12      30.13F WCI  29
GRINNELL*      LGT SNOW  33  32  96 SE9       30.17F WCI  25
KNOXVILLE *    CLOUDY    37  32  81 SE9       30.13F WCI  31
MARSHALLTOWN   LGT SNOW  33  32  96 SE14      30.15S FOG     WCI  23
NEWTON *       CLOUDY    34  32  93 E14       30.14F FOG     WCI  24
PELLA *        CLOUDY    36  32  84 SE7       30.17S WCI  30
PERRY *        LGT SNOW  34  34 100 SE10      30.09F WCI  26
$$

IAZ004>006-015-016-023>025-035-036-040600-
   NORTH CENTRAL IOWA

CITY           SKY/WX    TMP DP  RH WIND       PRES   REMARKS
ALGONA *       MIX PCPN  34  34 100 SE14      30.09F WCI  24
CLARION *      FOG       34  34 100 SE12      30.12S VSB 3/4 WCI  25
ESTHERVILLE    CLOUDY    32  32 100 S14       30.07F WCI  22
FORT DODGE *   CLOUDY    34  30  86 SE6       30.11F WCI  29
MASON CITY     LGT SNOW  33  32  96 S12       30.15R FOG     WCI  24
WEBSTER CITY * LGT SNOW  34  34 100 SE12      30.10F VSB 1   WCI  25
IOWA FALLS *   LGT SNOW  34  32  94 SE10      30.14F WCI  26
$$

IAZ007>011-017>019-026>030-037>042-050>054-066-040600-
   NORTHEAST IOWA

CITY           SKY/WX    TMP DP  RH WIND       PRES   REMARKS
CEDAR RAPIDS   CLOUDY    34  29  82 SE9       30.19S WCI  27
CHARLES CITY * CLOUDY    34  34 100 SE14      30.15F FOG     WCI  24
CLINTON *      CLOUDY    34  27  75 S8        30.25S WCI  27
DECORAH *      MIX PCPN  32  30  93 S8        30.16F WCI  25
DUBUQUE        CLOUDY    33  28  81 S7        30.22S WCI  27
MONTICELLO *   CLOUDY    36  28  75 S8        30.22R WCI  29
OELWEIN *      CLOUDY    34  32  93 SE9       30.18S WCI  26
WATERLOO       CLOUDY    35  30  82 SE13      30.16F WCI  26
$$

IAZ064-065-067-068-078-040600-
   EAST CENTRAL IOWA

CITY           SKY/WX    TMP DP  RH WIND       PRES   REMARKS
DAVENPORT      CLOUDY    34  27  75 S7        30.24S WCI  28
IOWA CITY      CLOUDY    36  28  73 SE8       30.23S WCI  30
MUSCATINE *    CLOUDY    36  28  75 SE9       30.23S WCI  29
QUAD CITIES    CLOUDY    35  26  69 SE8       30.24F WCI  29
$$

IAZ062-063-075>077-085>089-095>099-040600-
   SOUTHEAST IOWA

CITY           SKY/WX    TMP DP  RH WIND       PRES   REMARKS
BURLINGTON     CLOUDY    35  30  82 SE8       30.22S WCI  29
FAIRFIELD *    CLOUDY    36  30  80 SE8G15    30.18F WCI  29
FORT MADISON * CLOUDY    36  30  80 SE8       30.22S WCI  29
KEOKUK *       CLOUDY    37  32  81 SE10G16   30.20S WCI  30
OSKALOOSA *    CLOUDY    36  32  86 SE8       30.19R WCI  29
CENTERVILLE *    N/A     37  32  81 SE10      30.16S WCI  30
OTTUMWA        CLOUDY    37  31  78 E8        30.17S WCI  31
WASHINGTON *   CLOUDY    36  30  80 SE10      30.21F WCI  28
$$

ABBREVIATIONS USED IN REMARKS
   TC - TEMPERATURES IN CELSIUS
  WCI - WIND CHILL INDEX
   HX - HEAT INDEX
  VSB - VISIBILITY
$$





USA.gov is the U.S. government's official web portal to all federal, state and local government web resources and services.